Time,TemperatureF,DewpointF,PressureIn,WindDirection,WindDirectionDegrees,WindSpeedMPH,WindSpeedGustMPH,Humidity,HourlyPrecipIn,Conditions,Clouds,dailyrainin,SoftwareType,DateUTC
2013-12-28 00:02:00,49.3,39.6,30.08,SE,135,2.0,2.0,69,0.00,,,0.00,meteohub,2013-12-28 08:02:00,
2013-12-28 00:07:00,49.1,39.4,30.08,SE,135,1.0,2.0,69,0.00,,,0.00,meteohub,2013-12-28 08:07:00,
2013-12-28 00:12:00,48.9,38.8,30.08,SW,225,2.0,2.0,68,0.00,,,0.00,meteohub,2013-12-28 08:12:00,
2013-12-28 00:17:00,49.1,39.0,30.08,South,180,2.0,2.0,68,0.00,,,0.00,meteohub,2013-12-28 08:17:00,
2013-12-28 00:22:00,49.3,39.2,30.08,SE,135,1.0,2.0,68,0.00,,,0.00,meteohub,2013-12-28 08:22:00,
2013-12-28 00:27:00,48.7,38.7,30.08,SE,135,2.0,2.0,68,0.00,,,0.00,meteohub,2013-12-28 08:27:00,
2013-12-28 00:32:00,48.4,38.3,30.07,SE,135,1.0,2.0,68,0.00,,,0.00,meteohub,2013-12-28 08:32:00,
2013-12-28 00:37:00,48.4,38.3,30.08,SSE,158,2.0,2.0,68,0.00,,,0.00,meteohub,2013-12-28 08:37:00,
2013-12-28 00:42:00,48.4,38.3,30.07,SE,135,2.0,2.0,68,0.00,,,0.00,meteohub,2013-12-28 08:42:00,
2013-12-28 00:47:00,48.4,38.3,30.07,SE,135,2.0,2.0,68,0.00,,,0.00,meteohub,2013-12-28 08:47:00,
2013-12-28 00:52:00,48.4,38.3,30.08,East,90,2.0,2.0,68,0.00,,,0.00,meteohub,2013-12-28 08:52:00,
2013-12-28 00:57:00,48.0,38.3,30.08,SE,135,1.0,2.0,69,0.00,,,0.00,meteohub,2013-12-28 08:57:00,
2013-12-28 01:02:00,48.0,38.7,30.07,North,0,1.0,2.0,70,0.00,,,0.00,meteohub,2013-12-28 09:02:00,
2013-12-28 01:07:00,47.8,38.5,30.07,SE,135,2.0,2.0,70,0.00,,,0.00,meteohub,2013-12-28 09:07:00,
2013-12-28 01:12:00,47.5,38.1,30.07,South,180,2.0,2.0,70,0.00,,,0.00,meteohub,2013-12-28 09:12:00,
2013-12-28 01:17:00,47.1,37.8,30.07,SE,135,2.0,2.0,70,0.00,,,0.00,meteohub,2013-12-28 09:17:00,
2013-12-28 01:22:00,46.8,37.9,30.07,West,270,2.0,2.0,71,0.00,,,0.00,meteohub,2013-12-28 09:22:00,
2013-12-28 01:27:00,46.8,37.9,30.07,SE,135,1.0,2.0,71,0.00,,,0.00,meteohub,2013-12-28 09:27:00,
2013-12-28 01:32:00,47.1,38.1,30.07,SE,135,1.0,2.0,71,0.00,,,0.00,meteohub,2013-12-28 09:32:00,
2013-12-28 01:37:00,47.3,37.9,30.08,South,180,2.0,2.0,70,0.00,,,0.00,meteohub,2013-12-28 09:37:00,
2013-12-28 01:42:00,47.3,37.9,30.08,SW,225,1.0,2.0,70,0.00,,,0.00,meteohub,2013-12-28 09:42:00,
2013-12-28 01:47:00,47.3,37.6,30.08,NW,315,1.0,2.0,69,0.00,,,0.00,meteohub,2013-12-28 09:47:00,
2013-12-28 01:52:00,47.5,37.8,30.08,SE,135,2.0,2.0,69,0.00,,,0.00,meteohub,2013-12-28 09:52:00,
2013-12-28 01:57:00,47.3,37.6,30.08,SE,135,2.0,2.0,69,0.00,,,0.00,meteohub,2013-12-28 09:57:00,
2013-12-28 02:02:00,46.9,37.2,30.08,SE,135,2.0,2.0,69,0.00,,,0.00,meteohub,2013-12-28 10:02:00,
2013-12-28 02:07:00,46.4,37.2,30.08,SE,135,2.0,2.0,70,0.00,,,0.00,meteohub,2013-12-28 10:07:00,
2013-12-28 02:12:00,46.0,36.9,30.08,SE,135,2.0,2.0,70,0.00,,,0.00,meteohub,2013-12-28 10:12:00,
2013-12-28 02:17:00,46.0,36.9,30.08,SE,135,1.0,2.0,70,0.00,,,0.00,meteohub,2013-12-28 10:17:00,
2013-12-28 02:22:00,46.0,36.9,30.08,South,180,1.0,2.0,70,0.00,,,0.00,meteohub,2013-12-28 10:22:00,
2013-12-28 02:27:00,46.0,37.2,30.08,South,180,1.0,2.0,71,0.00,,,0.00,meteohub,2013-12-28 10:27:00,
2013-12-28 02:32:00,45.9,37.0,30.08,East,90,1.0,2.0,71,0.00,,,0.00,meteohub,2013-12-28 10:32:00,
2013-12-28 02:37:00,45.5,36.7,30.08,SE,135,1.0,2.0,71,0.00,,,0.00,meteohub,2013-12-28 10:37:00,
2013-12-28 02:42:00,45.3,36.5,30.08,South,180,2.0,2.0,71,0.00,,,0.00,meteohub,2013-12-28 10:42:00,
2013-12-28 02:47:00,45.0,36.1,30.08,SE,135,1.0,2.0,71,0.00,,,0.00,meteohub,2013-12-28 10:47:00,
2013-12-28 02:52:00,45.0,36.1,30.08,South,180,0.0,2.0,71,0.00,,,0.00,meteohub,2013-12-28 10:52:00,
2013-12-28 02:57:00,44.8,36.3,30.08,South,180,1.0,2.0,72,0.00,,,0.00,meteohub,2013-12-28 10:57:00,
2013-12-28 03:02:00,44.6,36.1,30.08,East,90,2.0,2.0,72,0.00,,,0.00,meteohub,2013-12-28 11:02:00,
2013-12-28 03:07:00,44.4,36.3,30.08,SE,135,2.0,2.0,73,0.00,,,0.00,meteohub,2013-12-28 11:07:00,
2013-12-28 03:12:00,44.4,36.3,30.08,South,180,2.0,2.0,73,0.00,,,0.00,meteohub,2013-12-28 11:12:00,
2013-12-28 03:17:00,44.4,36.3,30.07,South,180,2.0,2.0,73,0.00,,,0.00,meteohub,2013-12-28 11:17:00,
2013-12-28 03:22:00,44.4,36.3,30.08,South,180,1.0,2.0,73,0.00,,,0.00,meteohub,2013-12-28 11:22:00,
2013-12-28 03:27:00,44.4,36.3,30.08,SW,225,1.0,2.0,73,0.00,,,0.00,meteohub,2013-12-28 11:27:00,
2013-12-28 03:32:00,44.6,36.5,30.08,North,0,2.0,2.0,73,0.00,,,0.00,meteohub,2013-12-28 11:32:00,
2013-12-28 03:37:00,45.1,37.0,30.07,NW,315,0.0,2.0,73,0.00,,,0.00,meteohub,2013-12-28 11:37:00,
2013-12-28 03:42:00,45.7,37.6,30.08,NW,315,2.0,2.0,73,0.00,,,0.00,meteohub,2013-12-28 11:42:00,
2013-12-28 03:47:00,45.9,37.8,30.08,NW,315,0.0,2.0,73,0.00,,,0.00,meteohub,2013-12-28 11:47:00,
2013-12-28 03:52:00,45.7,37.6,30.08,South,180,1.0,2.0,73,0.00,,,0.00,meteohub,2013-12-28 11:52:00,
2013-12-28 03:57:00,45.7,37.6,30.07,NW,315,2.0,2.0,73,0.00,,,0.00,meteohub,2013-12-28 11:57:00,
2013-12-28 04:02:00,45.7,37.6,30.08,North,0,1.0,2.0,73,0.00,,,0.00,meteohub,2013-12-28 12:02:00,
2013-12-28 04:07:00,45.9,37.8,30.07,NW,315,1.0,2.0,73,0.00,,,0.00,meteohub,2013-12-28 12:07:00,
2013-12-28 04:12:00,46.0,37.9,30.07,NNW,338,2.0,2.0,73,0.00,,,0.00,meteohub,2013-12-28 12:12:00,
2013-12-28 04:17:00,46.2,37.8,30.07,NNW,338,1.0,2.0,72,0.00,,,0.00,meteohub,2013-12-28 12:17:00,
2013-12-28 04:22:00,46.2,37.8,30.07,NNW,338,1.0,2.0,72,0.00,,,0.00,meteohub,2013-12-28 12:22:00,
2013-12-28 04:27:00,46.0,37.2,30.07,SW,225,1.0,2.0,71,0.00,,,0.00,meteohub,2013-12-28 12:27:00,
2013-12-28 04:32:00,45.9,37.0,30.07,South,180,0.0,1.0,71,0.00,,,0.00,meteohub,2013-12-28 12:32:00,
2013-12-28 04:37:00,45.7,36.9,30.06,SE,135,1.0,2.0,71,0.00,,,0.00,meteohub,2013-12-28 12:37:00,
2013-12-28 04:42:00,45.7,36.9,30.07,WSW,248,1.0,2.0,71,0.00,,,0.00,meteohub,2013-12-28 12:42:00,
2013-12-28 04:47:00,45.7,36.9,30.07,NE,45,1.0,2.0,71,0.00,,,0.00,meteohub,2013-12-28 12:47:00,
2013-12-28 04:52:00,45.7,36.5,30.07,East,90,1.0,2.0,70,0.00,,,0.00,meteohub,2013-12-28 12:52:00,
2013-12-28 04:57:00,45.5,36.3,30.07,SE,135,0.0,1.0,70,0.00,,,0.00,meteohub,2013-12-28 12:57:00,
2013-12-28 05:02:00,45.3,36.1,30.06,SW,225,1.0,2.0,70,0.00,,,0.00,meteohub,2013-12-28 13:02:00,
2013-12-28 05:07:00,45.3,36.1,30.07,South,180,2.0,2.0,70,0.00,,,0.00,meteohub,2013-12-28 13:07:00,
2013-12-28 05:12:00,45.7,36.1,30.06,South,180,1.0,2.0,69,0.00,,,0.00,meteohub,2013-12-28 13:12:00,
2013-12-28 05:17:00,45.7,36.1,30.06,North,0,1.0,2.0,69,0.00,,,0.00,meteohub,2013-12-28 13:17:00,
2013-12-28 05:22:00,45.9,36.0,30.06,SE,135,1.0,2.0,68,0.00,,,0.00,meteohub,2013-12-28 13:22:00,
2013-12-28 05:27:00,46.4,36.0,30.06,SE,135,2.0,2.0,67,0.00,,,0.00,meteohub,2013-12-28 13:27:00,
2013-12-28 05:32:00,46.8,36.3,30.06,East,90,2.0,4.0,67,0.00,,,0.00,meteohub,2013-12-28 13:32:00,
2013-12-28 05:37:00,46.8,36.3,30.06,South,180,2.0,4.0,67,0.00,,,0.00,meteohub,2013-12-28 13:37:00,
2013-12-28 05:42:00,46.8,36.3,30.06,SE,135,3.0,4.0,67,0.00,,,0.00,meteohub,2013-12-28 13:42:00,
2013-12-28 05:47:00,46.8,36.0,30.06,East,90,1.0,4.0,66,0.00,,,0.00,meteohub,2013-12-28 13:47:00,
2013-12-28 05:52:00,46.6,35.8,30.06,East,90,1.0,4.0,66,0.00,,,0.00,meteohub,2013-12-28 13:52:00,
2013-12-28 05:57:00,46.4,35.6,30.07,SE,135,2.0,4.0,66,0.00,,,0.00,meteohub,2013-12-28 13:57:00,
2013-12-28 06:02:00,46.4,36.0,30.07,NW,315,1.0,2.0,67,0.00,,,0.00,meteohub,2013-12-28 14:02:00,
2013-12-28 06:07:00,46.4,36.0,30.07,NW,315,1.0,2.0,67,0.00,,,0.00,meteohub,2013-12-28 14:07:00,
2013-12-28 06:12:00,45.9,36.3,30.07,SW,225,2.0,2.0,69,0.00,,,0.00,meteohub,2013-12-28 14:12:00,
2013-12-28 06:17:00,45.7,36.1,30.07,North,0,1.0,2.0,69,0.00,,,0.00,meteohub,2013-12-28 14:17:00,
2013-12-28 06:22:00,45.5,36.3,30.07,NW,315,1.0,2.0,70,0.00,,,0.00,meteohub,2013-12-28 14:22:00,
2013-12-28 06:27:00,45.5,36.3,30.08,North,0,0.0,2.0,70,0.00,,,0.00,meteohub,2013-12-28 14:27:00,
2013-12-28 06:32:00,45.3,36.1,30.08,SW,225,0.0,2.0,70,0.00,,,0.00,meteohub,2013-12-28 14:32:00,
2013-12-28 06:37:00,45.0,36.1,30.08,SW,225,1.0,2.0,71,0.00,,,0.00,meteohub,2013-12-28 14:37:00,
2013-12-28 06:42:00,44.6,35.8,30.07,SW,225,0.0,1.0,71,0.00,,,0.00,meteohub,2013-12-28 14:42:00,
2013-12-28 06:47:00,44.2,35.8,30.08,East,90,0.0,1.0,72,0.00,,,0.00,meteohub,2013-12-28 14:47:00,
2013-12-28 06:52:00,44.2,36.1,30.08,East,90,0.0,2.0,73,0.00,,,0.00,meteohub,2013-12-28 14:52:00,
2013-12-28 06:57:00,43.9,35.8,30.08,East,90,0.0,2.0,73,0.00,,,0.00,meteohub,2013-12-28 14:57:00,
2013-12-28 07:02:00,43.9,35.8,30.08,SW,225,1.0,2.0,73,0.00,,,0.00,meteohub,2013-12-28 15:02:00,
2013-12-28 07:07:00,43.9,35.8,30.08,North,0,1.0,2.0,73,0.00,,,0.00,meteohub,2013-12-28 15:07:00,
2013-12-28 07:12:00,44.1,36.0,30.08,NW,315,1.0,2.0,73,0.00,,,0.00,meteohub,2013-12-28 15:12:00,
2013-12-28 07:17:00,44.2,35.8,30.09,SW,225,0.0,2.0,72,0.00,,,0.00,meteohub,2013-12-28 15:17:00,
2013-12-28 07:22:00,44.1,35.6,30.08,SW,225,0.0,2.0,72,0.00,,,0.00,meteohub,2013-12-28 15:22:00,
2013-12-28 07:27:00,43.9,35.4,30.08,SE,135,2.0,2.0,72,0.00,,,0.00,meteohub,2013-12-28 15:27:00,
2013-12-28 07:32:00,43.7,35.2,30.08,SE,135,1.0,2.0,72,0.00,,,0.00,meteohub,2013-12-28 15:32:00,
2013-12-28 07:37:00,43.5,35.1,30.09,SE,135,0.0,2.0,72,0.00,,,0.00,meteohub,2013-12-28 15:37:00,
2013-12-28 07:42:00,43.5,35.1,30.08,SW,225,1.0,2.0,72,0.00,,,0.00,meteohub,2013-12-28 15:42:00,
2013-12-28 07:47:00,43.5,35.1,30.08,SE,135,2.0,2.0,72,0.00,,,0.00,meteohub,2013-12-28 15:47:00,
2013-12-28 07:52:00,43.5,35.1,30.09,SE,135,1.0,2.0,72,0.00,,,0.00,meteohub,2013-12-28 15:52:00,
2013-12-28 07:57:00,43.5,35.1,30.09,SE,135,1.0,2.0,72,0.00,,,0.00,meteohub,2013-12-28 15:57:00,
2013-12-28 08:02:00,43.3,34.9,30.09,SE,135,0.0,2.0,72,0.00,,,0.00,meteohub,2013-12-28 16:02:00,
2013-12-28 08:07:00,43.3,35.2,30.09,South,180,2.0,2.0,73,0.00,,,0.00,meteohub,2013-12-28 16:07:00,
2013-12-28 08:12:00,43.2,35.1,30.09,SE,135,1.0,2.0,73,0.00,,,0.00,meteohub,2013-12-28 16:12:00,
2013-12-28 08:17:00,43.2,35.1,30.09,SE,135,1.0,2.0,73,0.00,,,0.00,meteohub,2013-12-28 16:17:00,
2013-12-28 08:22:00,43.3,35.2,30.10,SE,135,2.0,2.0,73,0.00,,,0.00,meteohub,2013-12-28 16:22:00,
2013-12-28 08:27:00,43.3,35.6,30.10,SE,135,1.0,2.0,74,0.00,,,0.00,meteohub,2013-12-28 16:27:00,
2013-12-28 08:32:00,43.3,35.6,30.10,SE,135,0.0,2.0,74,0.00,,,0.00,meteohub,2013-12-28 16:32:00,
2013-12-28 08:37:00,43.5,35.8,30.10,SE,135,0.0,2.0,74,0.00,,,0.00,meteohub,2013-12-28 16:37:00,
2013-12-28 08:42:00,43.7,35.6,30.11,SE,135,1.0,2.0,73,0.00,,,0.00,meteohub,2013-12-28 16:42:00,
2013-12-28 08:47:00,44.1,36.0,30.10,SE,135,0.0,1.0,73,0.00,,,0.00,meteohub,2013-12-28 16:47:00,
2013-12-28 08:52:00,44.4,36.3,30.11,SE,135,0.0,1.0,73,0.00,,,0.00,meteohub,2013-12-28 16:52:00,
2013-12-28 08:57:00,45.0,36.1,30.10,SE,135,0.0,1.0,71,0.00,,,0.00,meteohub,2013-12-28 16:57:00,
2013-12-28 09:02:00,45.7,36.9,30.10,SE,135,1.0,1.0,71,0.00,,,0.00,meteohub,2013-12-28 17:02:00,
2013-12-28 09:07:00,47.3,38.7,30.11,SE,135,0.0,1.0,72,0.00,,,0.00,meteohub,2013-12-28 17:07:00,
2013-12-28 09:12:00,48.9,39.6,30.10,SE,135,0.0,1.0,70,0.00,,,0.00,meteohub,2013-12-28 17:12:00,
2013-12-28 09:17:00,50.9,40.6,30.10,North,0,0.0,1.0,68,0.00,,,0.00,meteohub,2013-12-28 17:17:00,
2013-12-28 09:22:00,53.1,40.8,30.11,NW,315,1.0,2.0,63,0.00,,,0.00,meteohub,2013-12-28 17:22:00,
2013-12-28 09:27:00,54.9,41.2,30.10,South,180,1.0,2.0,60,0.00,,,0.00,meteohub,2013-12-28 17:27:00,
2013-12-28 09:32:00,56.5,42.3,30.11,South,180,0.0,2.0,59,0.00,,,0.00,meteohub,2013-12-28 17:32:00,
2013-12-28 09:37:00,58.5,42.4,30.11,NW,315,2.0,2.0,55,0.00,,,0.00,meteohub,2013-12-28 17:37:00,
2013-12-28 09:42:00,59.5,40.8,30.11,NW,315,2.0,2.0,50,0.00,,,0.00,meteohub,2013-12-28 17:42:00,
2013-12-28 09:47:00,59.7,39.9,30.11,NW,315,1.0,2.0,48,0.00,,,0.00,meteohub,2013-12-28 17:47:00,
2013-12-28 09:52:00,60.3,39.4,30.11,North,0,2.0,2.0,46,0.00,,,0.00,meteohub,2013-12-28 17:52:00,
2013-12-28 09:57:00,61.2,39.7,30.11,NW,315,1.0,2.0,45,0.00,,,0.00,meteohub,2013-12-28 17:57:00,
2013-12-28 10:02:00,62.4,40.8,30.11,East,90,1.0,2.0,45,0.00,,,0.00,meteohub,2013-12-28 18:02:00,
2013-12-28 10:07:00,63.9,40.3,30.10,SW,225,2.0,2.0,42,0.00,,,0.00,meteohub,2013-12-28 18:07:00,
2013-12-28 10:13:00,64.4,39.6,30.10,SW,225,1.0,2.0,40,0.00,,,0.00,meteohub,2013-12-28 18:13:00,
2013-12-28 10:19:00,64.6,39.7,30.10,WNW,293,1.0,2.0,40,0.00,,,0.00,meteohub,2013-12-28 18:19:00,
2013-12-28 10:25:00,65.5,37.8,30.10,South,180,1.0,2.0,36,0.00,,,0.00,meteohub,2013-12-28 18:25:00,
2013-12-28 10:31:00,65.3,37.6,30.10,NW,315,0.0,2.0,36,0.00,,,0.00,meteohub,2013-12-28 18:31:00,
2013-12-28 10:37:00,65.8,38.8,30.10,SE,135,1.0,2.0,37,0.00,,,0.00,meteohub,2013-12-28 18:37:00,
2013-12-28 10:42:00,66.4,37.9,30.09,West,270,1.0,2.0,35,0.00,,,0.00,meteohub,2013-12-28 18:42:00,
2013-12-28 10:47:00,66.4,37.9,30.09,North,0,2.0,2.0,35,0.00,,,0.00,meteohub,2013-12-28 18:47:00,
2013-12-28 10:52:00,66.4,37.9,30.09,West,270,1.0,2.0,35,0.00,,,0.00,meteohub,2013-12-28 18:52:00,
2013-12-28 10:57:00,66.0,37.6,30.09,NW,315,2.0,2.0,35,0.00,,,0.00,meteohub,2013-12-28 18:57:00,
2013-12-28 11:02:00,65.7,37.9,30.09,North,0,2.0,2.0,36,0.00,,,0.00,meteohub,2013-12-28 19:02:00,
2013-12-28 11:07:00,64.8,35.8,30.09,NW,315,1.0,2.0,34,0.00,,,0.00,meteohub,2013-12-28 19:07:00,
2013-12-28 11:12:00,64.6,35.6,30.09,North,0,1.0,2.0,34,0.00,,,0.00,meteohub,2013-12-28 19:12:00,
2013-12-28 11:17:00,64.4,36.1,30.09,North,0,1.0,2.0,35,0.00,,,0.00,meteohub,2013-12-28 19:17:00,
2013-12-28 11:22:00,63.7,40.8,30.09,South,180,1.0,2.0,43,0.00,,,0.00,meteohub,2013-12-28 19:22:00,
2013-12-28 11:27:00,63.9,42.1,30.08,NE,45,3.0,3.0,45,0.00,,,0.00,meteohub,2013-12-28 19:27:00,
2013-12-28 11:32:00,63.1,41.5,30.08,West,270,1.0,3.0,45,0.00,,,0.00,meteohub,2013-12-28 19:32:00,
2013-12-28 11:37:00,63.1,43.2,30.08,West,270,1.0,3.0,48,0.00,,,0.00,meteohub,2013-12-28 19:37:00,
2013-12-28 11:42:00,63.1,43.2,30.07,NW,315,0.0,3.0,48,0.00,,,0.00,meteohub,2013-12-28 19:42:00,
2013-12-28 11:47:00,63.1,42.1,30.06,West,270,1.0,2.0,46,0.00,,,0.00,meteohub,2013-12-28 19:47:00,
2013-12-28 11:52:00,63.1,42.6,30.07,West,270,1.0,3.0,47,0.00,,,0.00,meteohub,2013-12-28 19:52:00,
2013-12-28 11:57:00,63.1,42.6,30.06,West,270,0.0,3.0,47,0.00,,,0.00,meteohub,2013-12-28 19:57:00,
2013-12-28 12:02:00,63.3,43.3,30.06,East,90,2.0,3.0,48,0.00,,,0.00,meteohub,2013-12-28 20:02:00,
2013-12-28 12:07:00,62.4,43.0,30.06,NW,315,2.0,3.0,49,0.00,,,0.00,meteohub,2013-12-28 20:07:00,
2013-12-28 12:12:00,62.1,41.5,30.05,West,270,2.0,4.0,47,0.00,,,0.00,meteohub,2013-12-28 20:12:00,
2013-12-28 12:17:00,61.5,41.2,30.05,NW,315,2.0,4.0,47,0.00,,,0.00,meteohub,2013-12-28 20:17:00,
2013-12-28 12:22:00,61.3,42.1,30.05,NW,315,2.0,4.0,49,0.00,,,0.00,meteohub,2013-12-28 20:22:00,
2013-12-28 12:27:00,61.3,41.5,30.05,East,90,2.0,4.0,48,0.00,,,0.00,meteohub,2013-12-28 20:27:00,
2013-12-28 12:32:00,61.0,41.7,30.04,NW,315,2.0,4.0,49,0.00,,,0.00,meteohub,2013-12-28 20:32:00,
2013-12-28 12:37:00,61.2,41.9,30.04,North,0,3.0,4.0,49,0.00,,,0.00,meteohub,2013-12-28 20:37:00,
2013-12-28 12:42:00,61.2,42.4,30.04,West,270,0.0,4.0,50,0.00,,,0.00,meteohub,2013-12-28 20:42:00,
2013-12-28 12:47:00,61.9,43.5,30.04,WNW,293,2.0,4.0,51,0.00,,,0.00,meteohub,2013-12-28 20:47:00,
2013-12-28 12:52:00,62.1,43.7,30.04,NW,315,1.0,4.0,51,0.00,,,0.00,meteohub,2013-12-28 20:52:00,
2013-12-28 12:57:00,61.7,42.8,30.03,NW,315,3.0,3.0,50,0.00,,,0.00,meteohub,2013-12-28 20:57:00,
2013-12-28 13:02:00,60.8,41.5,30.03,SSE,158,3.0,3.0,49,0.00,,,0.00,meteohub,2013-12-28 21:02:00,
2013-12-28 13:07:00,60.6,40.8,30.03,NE,45,2.0,3.0,48,0.00,,,0.00,meteohub,2013-12-28 21:07:00,
2013-12-28 13:12:00,60.4,40.1,30.04,SE,135,4.0,4.0,47,0.00,,,0.00,meteohub,2013-12-28 21:12:00,
2013-12-28 13:17:00,60.1,39.7,30.03,SE,135,2.0,4.0,47,0.00,,,0.00,meteohub,2013-12-28 21:17:00,
2013-12-28 13:22:00,60.1,39.7,30.03,East,90,2.0,4.0,47,0.00,,,0.00,meteohub,2013-12-28 21:22:00,
2013-12-28 13:27:00,59.7,38.8,30.03,ESE,113,4.0,4.0,46,0.00,,,0.00,meteohub,2013-12-28 21:27:00,
2013-12-28 13:32:00,59.5,38.1,30.03,SE,135,2.0,4.0,45,0.00,,,0.00,meteohub,2013-12-28 21:32:00,
2013-12-28 13:37:00,59.7,38.3,30.03,East,90,3.0,4.0,45,0.00,,,0.00,meteohub,2013-12-28 21:37:00,
2013-12-28 13:42:00,59.7,37.8,30.03,SE,135,4.0,4.0,44,0.00,,,0.00,meteohub,2013-12-28 21:42:00,
2013-12-28 13:47:00,59.5,38.7,30.03,SE,135,1.0,4.0,46,0.00,,,0.00,meteohub,2013-12-28 21:47:00,
2013-12-28 13:52:00,59.5,39.4,30.03,East,90,2.0,4.0,47,0.00,,,0.00,meteohub,2013-12-28 21:52:00,
2013-12-28 13:57:00,59.5,38.1,30.02,SE,135,2.0,4.0,45,0.00,,,0.00,meteohub,2013-12-28 21:57:00,
2013-12-28 14:02:00,59.5,38.1,30.02,SE,135,1.0,4.0,45,0.00,,,0.00,meteohub,2013-12-28 22:02:00,
2013-12-28 14:07:00,59.4,37.9,30.02,East,90,2.0,4.0,45,0.00,,,0.00,meteohub,2013-12-28 22:07:00,
2013-12-28 14:12:00,59.4,38.7,30.03,NE,45,1.0,4.0,46,0.00,,,0.00,meteohub,2013-12-28 22:12:00,
2013-12-28 14:17:00,59.5,39.9,30.02,North,0,1.0,3.0,48,0.00,,,0.00,meteohub,2013-12-28 22:17:00,
2013-12-28 14:22:00,59.7,41.0,30.02,West,270,1.0,3.0,50,0.00,,,0.00,meteohub,2013-12-28 22:22:00,
2013-12-28 14:27:00,59.5,40.3,30.02,SW,225,0.0,2.0,49,0.00,,,0.00,meteohub,2013-12-28 22:27:00,
2013-12-28 14:32:00,59.2,40.6,30.02,NW,315,2.0,2.0,50,0.00,,,0.00,meteohub,2013-12-28 22:32:00,
2013-12-28 14:37:00,59.7,41.0,30.02,SE,135,1.0,2.0,50,0.00,,,0.00,meteohub,2013-12-28 22:37:00,
2013-12-28 14:42:00,59.5,40.8,30.02,West,270,2.0,2.0,50,0.00,,,0.00,meteohub,2013-12-28 22:42:00,
2013-12-28 14:47:00,59.7,41.0,30.02,NE,45,2.0,2.0,50,0.00,,,0.00,meteohub,2013-12-28 22:47:00,
2013-12-28 14:52:00,59.5,40.8,30.02,SW,225,2.0,2.0,50,0.00,,,0.00,meteohub,2013-12-28 22:52:00,
2013-12-28 14:57:00,59.7,41.0,30.02,NW,315,4.0,4.0,50,0.00,,,0.00,meteohub,2013-12-28 22:57:00,
2013-12-28 15:02:00,59.4,38.7,30.02,WSW,248,1.0,4.0,46,0.00,,,0.00,meteohub,2013-12-28 23:02:00,
2013-12-28 15:07:00,59.4,38.7,30.02,West,270,2.0,4.0,46,0.00,,,0.00,meteohub,2013-12-28 23:07:00,
2013-12-28 15:12:00,59.2,39.0,30.02,South,180,1.0,4.0,47,0.00,,,0.00,meteohub,2013-12-28 23:12:00,
2013-12-28 15:17:00,59.0,38.8,30.02,NW,315,2.0,2.0,47,0.00,,,0.00,meteohub,2013-12-28 23:17:00,
2013-12-28 15:22:00,59.0,38.3,30.02,NW,315,2.0,4.0,46,0.00,,,0.00,meteohub,2013-12-28 23:22:00,
2013-12-28 15:27:00,58.8,38.1,30.02,SE,135,1.0,4.0,46,0.00,,,0.00,meteohub,2013-12-28 23:27:00,
2013-12-28 15:32:00,58.6,37.4,30.01,SE,135,2.0,4.0,45,0.00,,,0.00,meteohub,2013-12-28 23:32:00,
2013-12-28 15:37:00,58.5,36.0,30.02,SW,225,1.0,2.0,43,0.00,,,0.00,meteohub,2013-12-28 23:37:00,
2013-12-28 15:42:00,58.3,36.5,30.01,NW,315,2.0,2.0,44,0.00,,,0.00,meteohub,2013-12-28 23:42:00,
2013-12-28 15:47:00,58.5,36.7,30.01,NW,315,0.0,2.0,44,0.00,,,0.00,meteohub,2013-12-28 23:47:00,
2013-12-28 15:52:00,58.6,36.9,30.01,West,270,0.0,2.0,44,0.00,,,0.00,meteohub,2013-12-28 23:52:00,
2013-12-28 15:57:00,58.5,36.7,30.01,NW,315,2.0,2.0,44,0.00,,,0.00,meteohub,2013-12-28 23:57:00,
2013-12-28 16:02:00,58.6,36.9,30.01,NW,315,2.0,2.0,44,0.00,,,0.00,meteohub,2013-12-29 00:02:00,
2013-12-28 16:07:00,58.8,37.0,30.01,North,0,0.0,2.0,44,0.00,,,0.00,meteohub,2013-12-29 00:07:00,
2013-12-28 16:12:00,58.8,37.0,30.01,NW,315,0.0,2.0,44,0.00,,,0.00,meteohub,2013-12-29 00:12:00,
2013-12-28 16:17:00,58.8,37.6,30.01,SW,225,1.0,2.0,45,0.00,,,0.00,meteohub,2013-12-29 00:17:00,
2013-12-28 16:22:00,58.6,37.9,30.01,West,270,0.0,2.0,46,0.00,,,0.00,meteohub,2013-12-29 00:22:00,
2013-12-28 16:27:00,58.5,38.3,30.01,North,0,1.0,2.0,47,0.00,,,0.00,meteohub,2013-12-29 00:27:00,
2013-12-28 16:32:00,58.1,38.5,30.01,NW,315,0.0,2.0,48,0.00,,,0.00,meteohub,2013-12-29 00:32:00,
2013-12-28 16:37:00,57.9,39.4,30.01,SW,225,0.0,2.0,50,0.00,,,0.00,meteohub,2013-12-29 00:37:00,
2013-12-28 16:42:00,57.4,38.8,30.01,NW,315,1.0,2.0,50,0.00,,,0.00,meteohub,2013-12-29 00:42:00,
2013-12-28 16:47:00,57.4,39.4,30.01,NW,315,1.0,1.0,51,0.00,,,0.00,meteohub,2013-12-29 00:47:00,
2013-12-28 16:52:00,57.4,39.4,30.01,NW,315,1.0,1.0,51,0.00,,,0.00,meteohub,2013-12-29 00:52:00,
2013-12-28 16:57:00,56.7,39.7,30.01,NW,315,0.0,1.0,53,0.00,,,0.00,meteohub,2013-12-29 00:57:00,
2013-12-28 17:02:00,56.1,39.7,30.01,NW,315,0.0,1.0,54,0.00,,,0.00,meteohub,2013-12-29 01:02:00,
2013-12-28 17:07:00,55.8,39.4,30.01,NW,315,0.0,1.0,54,0.00,,,0.00,meteohub,2013-12-29 01:07:00,
2013-12-28 17:12:00,55.4,39.6,30.01,NW,315,0.0,0.0,55,0.00,,,0.00,meteohub,2013-12-29 01:12:00,
2013-12-28 17:17:00,55.0,40.1,30.01,SE,135,0.0,0.0,57,0.00,,,0.00,meteohub,2013-12-29 01:17:00,
2013-12-28 17:22:00,54.5,40.1,30.01,SE,135,0.0,1.0,58,0.00,,,0.00,meteohub,2013-12-29 01:22:00,
2013-12-28 17:27:00,54.1,39.7,30.01,SE,135,0.0,1.0,58,0.00,,,0.00,meteohub,2013-12-29 01:27:00,
2013-12-28 17:32:00,53.8,39.7,30.01,SE,135,0.0,1.0,59,0.00,,,0.00,meteohub,2013-12-29 01:32:00,
2013-12-28 17:37:00,53.4,39.9,30.01,SE,135,0.0,1.0,60,0.00,,,0.00,meteohub,2013-12-29 01:37:00,
2013-12-28 17:42:00,53.1,39.9,30.01,SE,135,0.0,1.0,61,0.00,,,0.00,meteohub,2013-12-29 01:42:00,
2013-12-28 17:47:00,52.5,39.9,30.01,NW,315,0.0,0.0,62,0.00,,,0.00,meteohub,2013-12-29 01:47:00,
2013-12-28 17:52:00,52.3,39.7,30.01,NW,315,0.0,1.0,62,0.00,,,0.00,meteohub,2013-12-29 01:52:00,
2013-12-28 17:57:00,52.0,39.7,30.01,NW,315,0.0,1.0,63,0.00,,,0.00,meteohub,2013-12-29 01:57:00,
2013-12-28 18:02:00,51.8,40.1,30.01,NW,315,1.0,1.0,64,0.00,,,0.00,meteohub,2013-12-29 02:02:00,
2013-12-28 18:07:00,51.8,40.1,30.01,NW,315,1.0,1.0,64,0.00,,,0.00,meteohub,2013-12-29 02:07:00,
2013-12-28 18:12:00,51.4,41.2,30.02,East,90,0.0,1.0,68,0.00,,,0.00,meteohub,2013-12-29 02:12:00,
2013-12-28 18:17:00,51.1,41.7,30.02,NW,315,1.0,1.0,70,0.00,,,0.00,meteohub,2013-12-29 02:17:00,
2013-12-28 18:22:00,50.9,41.5,30.02,NW,315,0.0,2.0,70,0.00,,,0.00,meteohub,2013-12-29 02:22:00,
2013-12-28 18:27:00,50.7,41.0,30.01,NW,315,0.0,2.0,69,0.00,,,0.00,meteohub,2013-12-29 02:27:00,
2013-12-28 18:32:00,50.5,39.9,30.01,NW,315,0.0,2.0,67,0.00,,,0.00,meteohub,2013-12-29 02:32:00,
2013-12-28 18:37:00,50.4,39.4,30.01,NW,315,0.0,0.0,66,0.00,,,0.00,meteohub,2013-12-29 02:37:00,
2013-12-28 18:42:00,50.2,38.8,30.01,SE,135,1.0,2.0,65,0.00,,,0.00,meteohub,2013-12-29 02:42:00,
2013-12-28 18:47:00,50.2,38.8,30.01,South,180,2.0,2.0,65,0.00,,,0.00,meteohub,2013-12-29 02:47:00,
2013-12-28 18:52:00,50.0,38.3,30.01,SE,135,0.0,2.0,64,0.00,,,0.00,meteohub,2013-12-29 02:52:00,
2013-12-28 18:57:00,49.8,38.5,30.02,SE,135,1.0,2.0,65,0.00,,,0.00,meteohub,2013-12-29 02:57:00,
2013-12-28 19:02:00,49.6,37.9,30.01,NNW,338,1.0,2.0,64,0.00,,,0.00,meteohub,2013-12-29 03:02:00,
2013-12-28 19:07:00,49.6,37.9,30.02,North,0,1.0,2.0,64,0.00,,,0.00,meteohub,2013-12-29 03:07:00,
2013-12-28 19:12:00,49.8,38.1,30.02,SE,135,2.0,2.0,64,0.00,,,0.00,meteohub,2013-12-29 03:12:00,
2013-12-28 19:17:00,50.0,37.9,30.02,SW,225,1.0,2.0,63,0.00,,,0.00,meteohub,2013-12-29 03:17:00,
2013-12-28 19:22:00,50.0,37.9,30.02,SE,135,2.0,2.0,63,0.00,,,0.00,meteohub,2013-12-29 03:22:00,
2013-12-28 19:27:00,50.2,37.6,30.02,SE,135,2.0,2.0,62,0.00,,,0.00,meteohub,2013-12-29 03:27:00,
2013-12-28 19:32:00,50.2,37.6,30.03,SE,135,2.0,2.0,62,0.00,,,0.00,meteohub,2013-12-29 03:32:00,
2013-12-28 19:37:00,50.4,37.4,30.03,South,180,2.0,2.0,61,0.00,,,0.00,meteohub,2013-12-29 03:37:00,
2013-12-28 19:42:00,50.5,37.6,30.03,South,180,2.0,2.0,61,0.00,,,0.00,meteohub,2013-12-29 03:42:00,
2013-12-28 19:49:00,50.9,37.6,30.03,SE,135,2.0,2.0,60,0.00,,,0.00,meteohub,2013-12-29 03:49:00,
2013-12-28 19:55:00,50.9,37.0,30.03,SE,135,1.0,2.0,59,0.00,,,0.00,meteohub,2013-12-29 03:55:00,
2013-12-28 20:01:00,50.7,36.9,30.03,ENE,68,2.0,2.0,59,0.00,,,0.00,meteohub,2013-12-29 04:01:00,
2013-12-28 20:07:00,50.7,36.5,30.03,SE,135,2.0,2.0,58,0.00,,,0.00,meteohub,2013-12-29 04:07:00,
2013-12-28 20:12:00,50.7,36.5,30.04,SE,135,2.0,2.0,58,0.00,,,0.00,meteohub,2013-12-29 04:12:00,
2013-12-28 20:17:00,50.9,36.1,30.03,SW,225,1.0,2.0,57,0.00,,,0.00,meteohub,2013-12-29 04:17:00,
2013-12-28 20:22:00,50.9,36.1,30.03,West,270,2.0,2.0,57,0.00,,,0.00,meteohub,2013-12-29 04:22:00,
2013-12-28 20:27:00,50.7,36.0,30.04,South,180,2.0,2.0,57,0.00,,,0.00,meteohub,2013-12-29 04:27:00,
2013-12-28 20:32:00,50.5,36.0,30.04,South,180,2.0,3.0,57,0.00,,,0.00,meteohub,2013-12-29 04:32:00,
2013-12-28 20:37:00,50.4,35.8,30.04,SE,135,2.0,3.0,57,0.00,,,0.00,meteohub,2013-12-29 04:37:00,
2013-12-28 20:42:00,50.4,35.8,30.04,East,90,1.0,3.0,57,0.00,,,0.00,meteohub,2013-12-29 04:42:00,
2013-12-28 20:47:00,50.2,36.0,30.04,SE,135,2.0,3.0,58,0.00,,,0.00,meteohub,2013-12-29 04:47:00,
2013-12-28 20:52:00,50.2,36.0,30.04,South,180,2.0,3.0,58,0.00,,,0.00,meteohub,2013-12-29 04:52:00,
2013-12-28 20:57:00,50.4,35.8,30.04,SE,135,2.0,3.0,57,0.00,,,0.00,meteohub,2013-12-29 04:57:00,
2013-12-28 21:01:00,50.4,35.8,30.04,SE,135,2.0,2.0,57,0.00,,,0.00,meteohub,2013-12-29 05:01:00,
2013-12-28 21:02:00,50.4,35.8,30.04,SE,135,2.0,2.0,57,0.00,,,0.00,meteohub,2013-12-29 05:02:00,
2013-12-28 21:04:00,50.4,35.8,30.04,SE,135,2.0,2.0,57,0.00,,,0.00,meteohub,2013-12-29 05:04:00,
2013-12-28 21:07:00,50.4,35.8,30.04,SE,135,2.0,2.0,57,0.00,,,0.00,meteohub,2013-12-29 05:07:00,
2013-12-28 21:12:00,50.4,35.8,30.04,South,180,1.0,2.0,57,0.00,,,0.00,meteohub,2013-12-29 05:12:00,
2013-12-28 21:16:00,50.4,35.8,30.04,South,180,2.0,2.0,57,0.00,,,0.00,meteohub,2013-12-29 05:16:00,
2013-12-28 21:22:00,50.5,35.4,30.04,North,0,1.0,2.0,56,0.00,,,0.00,meteohub,2013-12-29 05:22:00,
2013-12-28 21:27:00,50.7,35.6,30.04,SE,135,2.0,2.0,56,0.00,,,0.00,meteohub,2013-12-29 05:27:00,
2013-12-28 21:32:00,50.7,35.1,30.04,SE,135,2.0,2.0,55,0.00,,,0.00,meteohub,2013-12-29 05:32:00,
2013-12-28 21:37:00,50.7,35.1,30.04,SE,135,2.0,2.0,55,0.00,,,0.00,meteohub,2013-12-29 05:37:00,
2013-12-28 21:42:00,50.7,35.1,30.04,SE,135,2.0,2.0,55,0.00,,,0.00,meteohub,2013-12-29 05:42:00,
2013-12-28 21:47:00,50.5,35.1,30.05,SE,135,1.0,2.0,55,0.00,,,0.00,meteohub,2013-12-29 05:47:00,
2013-12-28 21:52:00,50.4,34.9,30.05,South,180,2.0,2.0,55,0.00,,,0.00,meteohub,2013-12-29 05:52:00,
2013-12-28 21:57:00,50.4,34.9,30.05,South,180,2.0,2.0,55,0.00,,,0.00,meteohub,2013-12-29 05:57:00,
2013-12-28 22:02:00,50.4,34.9,30.05,SE,135,2.0,2.0,55,0.00,,,0.00,meteohub,2013-12-29 06:02:00,
2013-12-28 22:07:00,50.4,34.9,30.05,SE,135,2.0,3.0,55,0.00,,,0.00,meteohub,2013-12-29 06:07:00,
2013-12-28 22:14:00,50.2,35.1,30.05,SE,135,2.0,4.0,56,0.00,,,0.00,meteohub,2013-12-29 06:14:00,
2013-12-28 22:20:00,50.4,35.2,30.05,South,180,3.0,4.0,56,0.00,,,0.00,meteohub,2013-12-29 06:20:00,
2013-12-28 22:26:00,50.4,34.9,30.05,SE,135,2.0,3.0,55,0.00,,,0.00,meteohub,2013-12-29 06:26:00,
2013-12-28 22:32:00,50.9,34.9,30.05,South,180,2.0,3.0,54,0.00,,,0.00,meteohub,2013-12-29 06:32:00,
2013-12-28 22:37:00,51.8,34.2,30.05,South,180,2.0,2.0,51,0.00,,,0.00,meteohub,2013-12-29 06:37:00,
2013-12-28 22:42:00,52.7,34.2,30.05,North,0,2.0,2.0,49,0.00,,,0.00,meteohub,2013-12-29 06:42:00,
2013-12-28 22:47:00,53.2,34.5,30.05,SW,225,1.0,2.0,49,0.00,,,0.00,meteohub,2013-12-29 06:47:00,
2013-12-28 22:52:00,53.6,33.3,30.05,South,180,2.0,2.0,46,0.00,,,0.00,meteohub,2013-12-29 06:52:00,
2013-12-28 22:57:00,53.6,32.7,30.05,SE,135,2.0,2.0,45,0.00,,,0.00,meteohub,2013-12-29 06:57:00,
2013-12-28 23:02:00,54.0,33.1,30.05,West,270,2.0,2.0,45,0.00,,,0.00,meteohub,2013-12-29 07:02:00,
2013-12-28 23:07:00,54.3,33.4,30.05,NW,315,3.0,3.0,45,0.00,,,0.00,meteohub,2013-12-29 07:07:00,
2013-12-28 23:12:00,54.9,34.0,30.05,NW,315,2.0,3.0,45,0.00,,,0.00,meteohub,2013-12-29 07:12:00,
2013-12-28 23:17:00,55.2,33.6,30.05,South,180,2.0,3.0,44,0.00,,,0.00,meteohub,2013-12-29 07:17:00,
2013-12-28 23:22:00,55.4,33.8,30.05,North,0,2.0,3.0,44,0.00,,,0.00,meteohub,2013-12-29 07:22:00,
2013-12-28 23:27:00,55.6,33.4,30.05,West,270,1.0,2.0,43,0.00,,,0.00,meteohub,2013-12-29 07:27:00,
2013-12-28 23:32:00,55.6,33.4,30.04,North,0,2.0,2.0,43,0.00,,,0.00,meteohub,2013-12-29 07:32:00,
2013-12-28 23:37:00,55.4,32.7,30.05,SW,225,1.0,2.0,42,0.00,,,0.00,meteohub,2013-12-29 07:37:00,
2013-12-28 23:42:00,55.4,32.7,30.05,SW,225,1.0,2.0,42,0.00,,,0.00,meteohub,2013-12-29 07:42:00,
2013-12-28 23:47:00,55.6,32.9,30.05,NW,315,2.0,2.0,42,0.00,,,0.00,meteohub,2013-12-29 07:47:00,
2013-12-28 23:52:00,55.8,33.1,30.05,NE,45,2.0,2.0,42,0.00,,,0.00,meteohub,2013-12-29 07:52:00,
2013-12-28 23:57:00,55.9,32.5,30.05,North,0,2.0,2.0,41,0.00,,,0.00,meteohub,2013-12-29 07:57:00,